TimeEST,TemperatureF,Dew PointF,Humidity,Sea Level PressureIn,VisibilityMPH,Wind Direction,Wind SpeedMPH,Gust SpeedMPH,PrecipitationIn,Events,Conditions,WindDirDegrees,DateUTC
12:53 AM,54.0,50.0,86,30.06,10.0,Calm,Calm,-,N/A,,Partly Cloudy,0,2013-02-06 05:53:00
1:53 AM,53.1,50.0,89,30.06,10.0,Calm,Calm,-,N/A,,Mostly Cloudy,0,2013-02-06 06:53:00
2:53 AM,55.0,50.0,83,30.06,10.0,Calm,Calm,-,N/A,,Overcast,0,2013-02-06 07:53:00
3:53 AM,57.0,51.1,81,30.06,10.0,Calm,Calm,-,N/A,,Overcast,0,2013-02-06 08:53:00
4:53 AM,59.0,53.1,81,30.06,10.0,Calm,Calm,-,N/A,,Overcast,0,2013-02-06 09:53:00
5:53 AM,60.1,51.1,72,30.06,10.0,ESE,4.6,-,N/A,,Scattered Clouds,110,2013-02-06 10:53:00
6:53 AM,60.1,51.1,72,30.08,10.0,East,3.5,-,N/A,,Partly Cloudy,80,2013-02-06 11:53:00
7:53 AM,60.1,51.1,72,30.10,10.0,East,3.5,-,N/A,,Mostly Cloudy,90,2013-02-06 12:53:00
8:53 AM,64.9,51.1,61,30.12,10.0,East,4.6,-,N/A,,Overcast,90,2013-02-06 13:53:00
9:53 AM,68.0,53.1,59,30.14,10.0,ENE,4.6,-,N/A,,Overcast,60,2013-02-06 14:53:00
10:53 AM,72.0,53.1,51,30.14,10.0,ENE,6.9,-,N/A,,Mostly Cloudy,60,2013-02-06 15:53:00
11:53 AM,75.0,53.1,46,30.12,10.0,NE,5.8,-,N/A,,Overcast,50,2013-02-06 16:53:00
12:53 PM,75.0,54.0,48,30.10,10.0,Calm,Calm,-,N/A,,Overcast,0,2013-02-06 17:53:00
1:53 PM,75.9,55.9,50,30.08,10.0,Variable,4.6,-,N/A,,Mostly Cloudy,0,2013-02-06 18:53:00
2:53 PM,75.9,55.0,48,30.07,10.0,SSE,4.6,-,N/A,,Overcast,160,2013-02-06 19:53:00
3:53 PM,75.0,55.0,50,30.07,10.0,South,3.5,-,N/A,,Overcast,180,2013-02-06 20:53:00
4:53 PM,75.0,55.9,51,30.06,10.0,Calm,Calm,-,N/A,,Overcast,0,2013-02-06 21:53:00
5:53 PM,72.0,57.9,61,30.06,10.0,NE,5.8,-,N/A,,Overcast,40,2013-02-06 22:53:00
6:53 PM,71.1,57.0,61,30.07,10.0,NE,6.9,-,N/A,,Overcast,50,2013-02-06 23:53:00
7:53 PM,68.0,57.0,68,30.08,10.0,ENE,3.5,-,N/A,,Mostly Cloudy,60,2013-02-07 00:53:00
8:53 PM,64.9,55.9,73,30.10,10.0,NNE,3.5,-,N/A,,Mostly Cloudy,20,2013-02-07 01:53:00
9:53 PM,64.9,57.9,78,30.10,10.0,Calm,Calm,-,N/A,,Overcast,0,2013-02-07 02:53:00
10:53 PM,64.9,60.1,84,30.10,10.0,East,6.9,-,N/A,,Scattered Clouds,80,2013-02-07 03:53:00
11:53 PM,64.9,61.0,87,30.09,10.0,ENE,5.8,-,N/A,,Mostly Cloudy,60,2013-02-07 04:53:00